Fes-Sais, Morocco

10:50 AM WEST on July 26, 2017 (GMT +0100)
Fes-Sais

Weather History for GMFF - January, 2014

Change the Weather History Date:

Saturday, January 18, 2014

  Actual Average Record
Temperature  
Mean Temperature 50 °F -  
Max Temperature 55 °F 60 °F 71 °F (2007)
Min Temperature 46 °F 38 °F 30 °F (2003)
Degree Days  
Heating Degree Days 14    
Moisture  
Dew Point 40 °F    
Average Humidity 69    
Maximum Humidity 87    
Minimum Humidity 57    
Precipitation  
Precipitation 0.08 in 0.12 in - ()
Sea Level Pressure  
Sea Level Pressure 29.67 in    
Wind  
Wind Speed 14 mph ()    
Max Wind Speed 31 mph    
Max Gust Speed -    
Visibility 6.1 miles    
Events Rain    
Averages and records for this station are not official NWS values.
T = Trace of Precipitation, MM = Missing Value Source: Averaged Metar Reports

Daily Weather History Graph

Daily Weather History Graph

Search for Another Location

Airport or City:

Trip Planner

Search our weather history database for the weather conditions in past years. The results will help you decide how hot, cold, wet, or windy it might be!

Date:

Astronomy

Jan. 18, 2014 Rise Set
Actual Time 7:24 AM WET 5:36 PM WET
Civil Twilight 6:57 AM WET 6:03 PM WET
Nautical Twilight 6:26 AM WET 6:34 PM WET
Astronomical Twilight 5:56 AM WET 7:04 PM WET
Moon 7:56 PM WET (1/18) 8:24 AM WET (1/18)
Length of Visible Light 11h 06m
Length of Day
10h 12m
Waning Gibbous, 95% of the Moon is Illuminated
Jan 18
Waning Gibbous
Jan 24
Last Quarter
Jan 30
New
Feb 6
First Quarter
Feb 14
Full

Hourly Weather History & Observations

Time (WET) Temp. Windchill Dew Point Humidity Pressure Visibility Wind Dir Wind Speed Gust Speed Precip Events Conditions
12:00 AM 49 °F - 40 °F 62% 29.67 in 6 mi SW 12.7 mph - -   Mostly Cloudy
12:00 AM 50.0 °F - 39.2 °F 66% 29.62 in 6.2 mi SW 12.7 mph - N/A   Mostly Cloudy
1:00 AM 48.2 °F - 39.2 °F 71% 29.62 in 6.2 mi WSW 8.1 mph - N/A   Mostly Cloudy
2:00 AM 48.2 °F - 39.2 °F 71% 29.59 in 6.2 mi WSW 9.2 mph - N/A   Mostly Cloudy
3:00 AM 48 °F - 39 °F 62% 29.64 in 6 mi SW 9.2 mph - -   Mostly Cloudy
3:00 AM 48.2 °F - 39.2 °F 71% 29.59 in 6.2 mi SW 9.2 mph - N/A   Mostly Cloudy
4:00 AM 46.4 °F 42.4 °F 37.4 °F 71% 29.59 in 6.2 mi SW 8.1 mph - N/A   Mostly Cloudy
5:00 AM 48.2 °F - 37.4 °F 66% 29.59 in 6.2 mi SW 12.7 mph - N/A   Mostly Cloudy
6:00 AM 48 °F - 38 °F 59% 29.65 in 6 mi SW 11.5 mph - -   Mostly Cloudy
6:00 AM 48.2 °F - 37.4 °F 66% 29.59 in 6.2 mi SW 11.5 mph - N/A   Mostly Cloudy
7:00 AM 48.2 °F - 37.4 °F 66% 29.59 in 6.2 mi SSW 15.0 mph - N/A   Mostly Cloudy
8:00 AM 50.0 °F - 41.0 °F 71% 29.59 in 6.2 mi WSW 18.4 mph - N/A   Mostly Cloudy
9:00 AM 52 °F - 43 °F 64% 29.65 in 6 mi WSW 25.3 mph - -   Mostly Cloudy
9:00 AM 51.8 °F - 42.8 °F 71% 29.62 in 6.2 mi WSW 25.3 mph - N/A   Mostly Cloudy
10:00 AM 55.4 °F - 46.4 °F 72% 29.65 in 6.2 mi West 15.0 mph - N/A   Mostly Cloudy
11:00 AM 50.0 °F - 46.4 °F 87% 29.65 in 6.2 mi WSW 25.3 mph - N/A   Mostly Cloudy
12:00 PM 47 °F - 40 °F 67% 29.68 in 6 mi WSW 31.1 mph - -   Mostly Cloudy
12:00 PM 48.2 °F - 39.2 °F 71% 29.65 in 6.2 mi WSW 31.1 mph - N/A   Mostly Cloudy
1:00 PM 48.2 °F - 39.2 °F 71% 29.65 in 5.6 mi WSW 29.9 mph - N/A Rain Rain
2:00 PM 50.0 °F - 41.0 °F 71% 29.65 in 6.2 mi WSW 23.0 mph - N/A Rain Rain
3:00 PM 50 °F - 41 °F 62% 29.70 in 6 mi WSW 16.1 mph - -   Partly Cloudy
3:00 PM 50.0 °F - 41.0 °F 71% 29.68 in 6.2 mi WSW 13.8 mph - N/A   Partly Cloudy
4:00 PM 50.0 °F - 42.8 °F 76% 29.71 in 6.2 mi West 9.2 mph - N/A   Partly Cloudy
5:00 PM 46.4 °F 41.1 °F 39.2 °F 76% 29.74 in 6.2 mi West 11.5 mph - N/A   Partly Cloudy
6:00 PM 49 °F - 40 °F 61% 29.77 in 6 mi WSW 27.6 mph - - Rain Light Rain
6:00 PM 48.2 °F - 39.2 °F 71% 29.74 in 6.2 mi WSW 26.5 mph - N/A   Partly Cloudy
7:00 PM 48.2 °F - 39.2 °F 71% 29.74 in 6.2 mi WSW 19.6 mph - N/A   Partly Cloudy
8:00 PM 48.2 °F - 39.2 °F 71% 29.74 in 6.2 mi SW 19.6 mph - N/A   Partly Cloudy
9:00 PM 49 °F - 38 °F 57% 29.80 in 6 mi WSW 17.3 mph - -   Mostly Cloudy
9:00 PM 50.0 °F - 39.2 °F 66% 29.77 in 6.2 mi WSW 20.7 mph - N/A   Partly Cloudy
10:00 PM 50.0 °F - 39.2 °F 66% 29.74 in 6.2 mi SW 21.9 mph - N/A   Partly Cloudy
10:30 PM 50.0 °F - 41.0 °F 71% 29.74 in 6.2 mi WSW 23.0 mph - N/A   Partly Cloudy
11:00 PM 50.0 °F - 41.0 °F 71% 29.74 in 6.2 mi WSW 21.9 mph - N/A   Partly Cloudy